�N����,����,�~����,�C��,���x,�C��,����,���ϕ���,�ő�u�ԕ���,�ő厞����,���˗�,�I�_���x,�n�����x,�ő啗���N��,DTYPE
"17/04/19","00:10",0.0,11.0,94.8,994.8,288.0,1.3,1.8,329.1,0.00,10.2,14.4,"00:00:08",1
"17/04/19","00:20",0.0,10.7,94.8,994.8,286.5,1.1,1.6,310.4,0.00,9.9,14.6,"00:13:52",1
"17/04/19","00:30",0.0,10.8,95.3,994.8,279.7,1.5,2.0,298.5,0.00,10.1,14.5,"00:28:56",1
"17/04/19","00:40",0.0,10.9,95.3,994.8,285.9,1.5,1.9,307.1,0.00,10.2,14.3,"00:30:24",1
"17/04/19","00:50",0.0,10.8,95.1,994.6,293.0,1.1,1.9,316.2,0.00,10.1,14.3,"00:40:24",1
"17/04/19","01:00",0.0,10.6,95.4,994.6,315.0,1.7,2.4,320.9,0.00,9.9,14.3,"00:55:20",1
"17/04/19","01:10",0.0,10.6,95.6,994.6,312.1,1.6,2.0,320.6,0.00,10.0,14.2,"01:00:16",1
"17/04/19","01:20",0.0,10.4,95.7,994.8,300.8,1.5,1.9,302.2,0.00,9.8,14.0,"01:12:26",1
"17/04/19","01:30",0.0,10.3,96.1,994.4,297.8,1.1,1.4,310.4,0.00,9.7,14.0,"01:24:48",1
"17/04/19","01:40",0.0,10.2,96.3,994.1,284.7,1.0,1.7,267.3,0.00,9.7,14.1,"01:39:52",1
"17/04/19","01:50",0.0,10.2,96.5,994.1,299.1,1.7,2.6,328.2,0.00,9.7,13.8,"01:43:52",1
"17/04/19","02:00",0.0,10.3,96.6,993.9,322.5,1.7,2.4,325.3,0.00,9.8,14.0,"01:51:28",1
"17/04/19","02:10",0.0,10.3,96.7,993.9,295.7,1.6,2.1,306.2,0.00,9.8,14.0,"02:02:16",1
"17/04/19","02:20",0.0,10.5,97.0,994.1,295.5,1.6,2.4,317.8,0.00,10.1,14.0,"02:19:36",1
"17/04/19","02:30",0.0,10.8,97.0,993.4,296.8,1.3,2.0,303.1,0.00,10.4,13.8,"02:23:52",1
"17/04/19","02:40",0.0,11.0,96.9,993.7,313.0,1.7,2.6,320.2,0.00,10.6,14.0,"02:38:56",1
"17/04/19","02:50",0.0,11.1,96.9,993.7,330.2,1.3,1.9,331.7,0.00,10.7,13.9,"02:44:48",1
"17/04/19","03:00",0.0,11.3,96.7,993.7,307.2,1.3,2.0,318.0,0.00,10.8,13.8,"02:54:08",1
"17/04/19","03:10",0.0,11.4,96.6,993.9,292.1,0.5,0.9,242.3,0.00,10.9,14.0,"03:02:08",1
"17/04/19","03:20",0.0,11.4,96.5,993.4,147.1,0.2,1.1,331.4,0.00,10.9,13.9,"03:16:48",1
"17/04/19","03:30",0.0,11.5,96.3,993.4,310.1,1.0,1.7,317.3,0.00,11.0,13.7,"03:24:40",1
"17/04/19","03:40",0.0,11.5,96.2,993.7,291.1,0.8,1.7,301.9,0.00,11.0,13.9,"03:30:02",1
"17/04/19","03:50",0.0,11.6,96.3,993.9,326.4,1.8,2.8,327.8,0.00,11.1,13.8,"03:46:16",1
"17/04/19","04:00",0.0,11.7,96.1,994.1,328.0,1.5,2.4,334.2,0.00,11.1,13.9,"03:59:28",1
"17/04/19","04:10",0.0,11.7,96.0,994.1,311.6,1.3,1.9,339.7,0.00,11.1,13.8,"04:00:32",1
"17/04/19","04:20",0.0,11.7,96.0,994.1,293.4,1.3,2.0,321.0,0.00,11.1,14.0,"04:13:12",1
"17/04/19","04:30",0.0,11.8,95.9,994.4,313.5,1.5,2.1,325.0,0.00,11.2,13.9,"04:23:44",1
"17/04/19","04:40",0.0,11.8,95.6,994.4,274.8,0.5,0.8,269.4,0.00,11.2,13.9,"04:30:16",1
"17/04/19","04:50",0.0,11.9,95.6,994.4,312.4,0.7,2.2,323.1,0.00,11.3,13.8,"04:49:36",1
"17/04/19","05:00",0.0,11.8,95.6,994.4,331.3,1.6,2.6,334.4,0.00,11.2,13.9,"04:56:56",1
"17/04/19","05:10",0.0,11.8,95.7,994.6,337.8,1.2,2.2,325.7,0.00,11.2,13.9,"05:05:44",1
"17/04/19","05:20",0.0,11.8,95.8,994.6,340.1,1.1,2.0,321.7,0.00,11.2,13.9,"05:16:16",1
"17/04/19","05:30",0.0,11.8,95.8,994.6,332.0,1.7,2.8,332.1,0.00,11.2,13.7,"05:23:44",1
"17/04/19","05:40",0.0,11.9,95.9,994.8,317.3,1.2,2.4,332.6,0.00,11.3,13.9,"05:32:40",1
"17/04/19","05:50",0.0,12.1,95.9,995.1,304.0,1.2,2.2,333.5,0.00,11.5,13.8,"05:46:08",1
"17/04/19","06:00",0.2,12.2,95.6,995.3,294.9,1.2,2.5,309.1,0.00,11.6,13.8,"05:53:12",1
"17/04/19","06:10",0.0,12.5,95.5,996.0,252.3,1.1,2.0,241.5,0.00,11.8,14.0,"06:04:24",1
"17/04/19","06:20",0.0,12.7,94.9,996.0,259.6,0.7,1.4,160.9,0.00,11.9,14.0,"06:19:52",1
"17/04/19","06:30",0.0,13.1,93.3,996.3,318.8,1.2,2.5,121.6,0.00,12.1,14.0,"06:20:56",1
"17/04/19","06:40",0.0,13.5,89.6,996.5,349.0,1.2,3.2,310.1,0.00,11.9,13.8,"06:37:44",1
"17/04/19","06:50",0.0,14.1,85.3,996.5,341.9,2.0,3.6,327.9,0.01,11.7,13.8,"06:44:16",1
"17/04/19","07:00",0.0,14.1,83.3,997.2,90.3,0.6,2.1,322.6,0.02,11.4,13.9,"06:57:36",1
"17/04/19","07:10",0.0,14.1,80.0,997.0,345.2,1.5,4.9,324.1,0.02,10.7,13.8,"07:07:52",1
"17/04/19","07:20",0.0,14.8,75.8,997.7,6.6,1.7,3.5,42.9,0.07,10.6,13.9,"07:17:52",1
"17/04/19","07:30",0.0,15.4,74.1,997.9,333.7,1.8,4.2,323.1,0.10,10.9,14.0,"07:22:40",1
"17/04/19","07:40",0.0,15.6,69.0,998.4,331.3,2.6,8.3,337.5,0.12,10.0,13.9,"07:39:20",1
"17/04/19","07:50",0.0,16.0,67.9,998.2,334.1,3.4,7.5,334.1,0.18,10.1,14.1,"07:40:08",1
"17/04/19","08:00",0.0,16.4,65.4,997.9,288.4,1.1,2.8,358.0,0.17,9.9,14.0,"07:50:48",1
"17/04/19","08:10",0.0,16.4,65.2,997.9,252.8,0.6,1.8,181.2,0.11,9.9,14.2,"08:09:20",1
"17/04/19","08:20",0.0,16.8,61.9,997.9,282.3,1.0,1.8,20.4,0.17,9.5,14.0,"08:17:36",1
"17/04/19","08:30",0.0,16.7,61.1,998.2,312.5,0.8,2.8,306.4,0.20,9.2,14.2,"08:22:40",1
"17/04/19","08:40",0.0,17.2,59.3,998.2,351.9,1.6,4.3,334.6,0.25,9.2,14.3,"08:38:16",1
"17/04/19","08:50",0.0,16.9,62.0,998.4,348.6,2.3,4.3,349.9,0.22,9.6,14.4,"08:42:56",1
"17/04/19","09:00",0.0,16.2,59.8,998.4,333.9,2.2,4.3,334.4,0.07,8.4,14.5,"08:55:28",1
"17/04/19","09:10",0.0,16.4,59.3,997.7,259.0,1.5,4.0,322.1,0.07,8.5,14.2,"09:08:24",1
"17/04/19","09:20",0.0,16.2,58.4,998.6,289.2,2.3,4.5,338.7,0.08,8.1,14.3,"09:14:32",1
"17/04/19","09:30",0.0,18.0,54.6,998.6,261.7,2.5,5.1,218.3,0.38,8.8,14.3,"09:23:44",1
"17/04/19","09:40",0.0,17.5,53.5,998.2,312.1,3.0,6.4,341.7,0.30,8.0,14.5,"09:31:36",1
"17/04/19","09:50",0.0,18.1,49.6,998.6,359.4,1.6,3.6,347.2,0.34,7.4,14.6,"09:47:28",1
"17/04/19","10:00",0.0,17.8,50.9,998.6,333.4,1.7,4.1,345.1,0.27,7.5,14.5,"09:57:20",1
"17/04/19","10:10",0.0,18.4,46.1,998.2,329.2,3.6,6.8,346.9,0.52,6.7,14.8,"10:07:12",1
"17/04/19","10:20",0.0,18.7,45.6,997.7,328.1,3.5,7.1,343.3,0.55,6.8,14.6,"10:13:52",1
"17/04/19","10:30",0.0,19.3,49.3,997.9,321.6,2.5,6.6,323.5,0.57,8.5,15.0,"10:21:28",1
"17/04/19","10:40",0.0,19.4,44.6,998.4,286.6,2.1,5.0,331.6,0.51,7.1,15.1,"10:38:48",1
"17/04/19","10:50",0.0,19.6,43.1,998.6,316.6,3.0,6.6,348.0,0.60,6.8,15.2,"10:41:36",1
"17/04/19","11:00",0.0,19.8,44.1,997.9,303.0,2.6,7.2,326.6,0.60,7.3,15.3,"10:50:40",1
"17/04/19","11:10",0.0,19.2,39.8,998.2,338.1,5.0,9.4,328.7,0.61,5.3,15.5,"11:01:04",1
"17/04/19","11:20",0.0,19.8,40.6,997.7,334.4,3.0,7.7,351.8,0.61,6.1,15.8,"11:19:28",1
"17/04/19","11:30",0.0,20.1,40.4,998.2,339.4,2.8,5.5,349.3,0.62,6.3,16.0,"11:26:16",1
"17/04/19","11:40",0.0,20.2,36.5,997.9,329.3,3.5,6.7,339.0,0.63,4.9,16.2,"11:38:24",1
"17/04/19","11:50",0.0,20.1,39.8,998.2,296.8,3.6,8.0,347.2,0.64,6.1,16.2,"11:47:20",1
"17/04/19","12:00",0.0,20.2,39.3,998.2,319.1,3.5,5.8,329.3,0.64,6.0,16.4,"11:54:16",1
"17/04/19","12:10",0.0,20.4,37.9,998.2,328.3,3.5,9.4,323.7,0.65,5.6,16.5,"12:09:28",1
"17/04/19","12:20",0.0,19.8,38.2,997.9,339.8,4.6,7.2,327.6,0.66,5.2,16.7,"12:12:48",1
"17/04/19","12:30",0.0,20.4,39.0,998.2,339.1,3.2,6.5,336.1,0.65,6.0,17.0,"12:24:40",1
"17/04/19","12:40",0.0,20.9,39.3,998.2,340.2,2.7,6.2,326.2,0.65,6.6,17.3,"12:32:56",1
"17/04/19","12:50",0.0,20.3,37.2,997.4,350.4,3.4,6.2,339.9,0.64,5.3,17.4,"12:41:28",1
"17/04/19","13:00",0.0,20.4,38.1,997.9,341.4,3.1,5.2,330.5,0.66,5.7,17.3,"12:56:16",1
"17/04/19","13:10",0.0,20.3,39.3,997.9,345.2,4.2,7.2,332.4,0.64,6.1,17.8,"13:08:56",1
"17/04/19","13:20",0.0,20.4,36.0,997.7,356.3,3.6,7.0,326.1,0.63,4.9,17.8,"13:15:04",1
"17/04/19","13:30",0.0,20.6,39.1,997.7,343.5,3.9,8.6,341.2,0.57,6.3,18.2,"13:27:20",1
"17/04/19","13:40",0.0,20.7,38.1,998.4,341.5,4.1,9.3,336.0,0.61,6.0,18.3,"13:37:06",1
"17/04/19","13:50",0.0,20.7,37.6,998.4,347.5,4.1,9.3,348.3,0.60,5.8,18.2,"13:49:44",1
"17/04/19","14:00",0.0,20.6,37.8,998.6,323.7,3.6,7.4,326.5,0.46,5.8,18.2,"13:50:02",1
"17/04/19","14:10",0.0,20.2,40.5,998.6,337.2,3.9,7.8,335.4,0.51,6.4,18.3,"14:04:40",1
"17/04/19","14:20",0.0,20.2,41.4,998.6,19.1,3.2,7.5,46.7,0.61,6.7,18.4,"14:17:52",1
"17/04/19","14:30",0.0,19.4,42.9,998.9,345.8,4.6,9.1,328.4,0.35,6.5,18.5,"14:23:44",1
"17/04/19","14:40",0.0,20.1,43.2,999.1,358.1,3.9,7.8,13.9,0.52,7.3,18.3,"14:33:52",1
"17/04/19","14:50",0.0,18.7,45.8,999.3,353.4,3.5,6.7,351.9,0.25,6.8,18.1,"14:40:32",1
"17/04/19","15:00",0.0,18.2,48.2,999.6,357.6,3.5,5.9,331.6,0.20,7.1,18.2,"14:51:44",1
"17/04/19","15:10",0.0,18.0,49.4,999.8,346.1,3.5,7.9,339.9,0.14,7.3,18.2,"15:00:24",1
"17/04/19","15:20",0.0,17.6,49.2,999.6,356.3,3.9,7.7,346.0,0.07,6.9,18.0,"15:11:04",1
"17/04/19","15:30",0.0,17.3,48.4,1000.0,0.7,3.0,5.2,348.1,0.08,6.4,17.8,"15:26:16",1
"17/04/19","15:40",0.0,17.2,49.6,1000.5,355.5,2.6,8.0,356.9,0.08,6.6,17.4,"15:37:38",1
"17/04/19","15:50",0.0,17.0,49.9,1000.5,350.2,3.5,7.3,330.1,0.08,6.5,17.6,"15:40:40",1
"17/04/19","16:00",0.0,16.9,50.3,1001.0,346.0,3.9,9.6,351.4,0.12,6.5,17.5,"15:52:48",1
"17/04/19","16:10",0.0,17.0,49.4,1001.0,350.1,3.0,6.4,327.7,0.12,6.4,17.6,"16:02:48",1
"17/04/19","16:20",0.0,17.6,47.9,1001.2,355.9,3.5,8.3,341.8,0.23,6.5,17.3,"16:13:06",1
"17/04/19","16:30",0.0,17.5,47.7,1001.2,350.3,3.6,6.2,337.9,0.20,6.3,17.3,"16:21:52",1
"17/04/19","16:40",0.0,17.3,49.2,1001.9,336.5,4.6,11.0,329.2,0.20,6.6,17.2,"16:31:20",1
"17/04/19","16:50",0.0,17.6,47.1,1001.9,342.1,3.4,8.7,336.3,0.21,6.2,17.1,"16:45:20",1
"17/04/19","17:00",0.0,17.6,47.0,1001.9,334.0,3.0,6.5,344.6,0.16,6.2,17.0,"16:57:28",1
"17/04/19","17:10",0.0,17.2,47.5,1002.4,323.3,4.2,8.5,344.8,0.12,6.0,17.0,"17:04:48",1
"17/04/19","17:20",0.0,17.0,47.5,1002.4,324.2,5.0,9.1,337.9,0.10,5.8,17.0,"17:18:40",1
"17/04/19","17:30",0.0,17.0,46.7,1002.4,331.2,3.9,9.7,347.9,0.08,5.6,16.8,"17:26:16",1
"17/04/19","17:40",0.0,16.6,45.5,1002.6,325.7,6.0,10.0,352.9,0.06,4.8,16.7,"17:38:16",1
"17/04/19","17:50",0.0,16.3,47.3,1003.1,340.1,5.6,11.1,341.1,0.04,5.1,16.7,"17:43:36",1
"17/04/19","18:00",0.0,15.9,48.2,1002.9,343.3,6.8,12.3,343.0,0.02,5.0,16.7,"17:58:24",1
"17/04/19","18:10",0.0,15.5,48.4,1003.4,341.8,6.2,12.6,337.9,0.01,4.7,16.5,"18:00:24",1
"17/04/19","18:20",0.0,15.1,52.2,1003.6,343.0,4.1,7.8,307.0,0.00,5.4,16.1,"18:12:08",1
"17/04/19","18:30",0.0,14.7,54.8,1003.8,345.5,3.4,7.1,332.3,0.00,5.7,16.2,"18:27:44",1
"17/04/19","18:40",0.0,14.4,55.6,1004.3,339.4,3.4,7.9,330.8,0.00,5.7,16.0,"18:30:56",1
"17/04/19","18:50",0.0,14.3,54.7,1005.0,341.6,3.5,7.2,335.3,0.00,5.4,15.9,"18:43:52",1
"17/04/19","19:00",0.0,14.1,55.9,1005.2,343.7,2.6,6.4,320.2,0.00,5.5,15.9,"18:57:20",1
"17/04/19","19:10",0.0,13.9,56.5,1005.5,345.1,2.3,5.6,346.3,0.00,5.4,15.6,"19:01:36",1
"17/04/19","19:20",0.0,13.3,60.0,1005.7,337.1,1.3,2.1,339.0,0.00,5.7,15.8,"19:12:16",1
"17/04/19","19:30",0.0,12.9,61.3,1006.2,341.0,1.5,2.5,337.7,0.00,5.7,15.5,"19:26:16",1
"17/04/19","19:40",0.0,12.9,62.3,1006.0,345.4,1.2,2.5,345.7,0.00,5.9,15.4,"19:33:20",1
"17/04/19","19:50",0.0,12.6,65.1,1006.0,353.8,1.3,2.4,335.7,0.00,6.3,15.4,"19:48:48",1
"17/04/19","20:00",0.0,11.9,67.5,1006.4,347.5,0.8,1.8,326.8,0.00,6.1,15.4,"19:50:08",1
"17/04/19","20:10",0.0,11.9,67.7,1006.4,344.8,1.2,2.9,32.0,0.00,6.2,15.2,"20:00:08",1
"17/04/19","20:20",0.0,11.2,69.7,1006.9,311.8,1.1,2.2,314.5,0.00,5.9,15.1,"20:12:16",1
"17/04/19","20:30",0.0,11.6,68.5,1006.9,348.2,1.6,3.9,343.2,0.00,6.0,15.2,"20:29:18",1
"17/04/19","20:40",0.0,12.1,66.0,1006.9,314.6,2.0,5.8,313.2,0.00,6.0,15.0,"20:38:58",1
"17/04/19","20:50",0.0,11.5,67.5,1007.4,322.8,1.2,2.9,326.6,0.00,5.7,15.1,"20:42:24",1
"17/04/19","21:00",0.0,11.1,70.0,1007.4,311.5,1.2,1.8,290.8,0.00,5.9,14.6,"20:59:04",1
"17/04/19","21:10",0.0,10.8,72.8,1007.6,320.0,1.7,4.1,329.5,0.00,6.2,14.5,"21:08:58",1
"17/04/19","21:20",0.0,10.7,73.0,1007.4,329.9,1.6,3.2,331.0,0.00,6.1,14.9,"21:13:56",1
"17/04/19","21:30",0.0,10.3,74.1,1007.6,328.6,1.5,3.4,342.7,0.00,5.9,14.4,"21:24:14",1
"17/04/19","21:40",0.0,10.0,75.3,1008.1,321.7,1.6,2.4,315.9,0.00,5.9,14.6,"21:34:26",1
"17/04/19","21:50",0.0,9.5,77.9,1007.8,324.0,1.6,2.5,336.4,0.00,5.9,14.3,"21:44:48",1
"17/04/19","22:00",0.0,9.1,80.2,1007.8,311.0,1.7,2.8,317.1,0.00,5.9,14.2,"21:55:20",1
"17/04/19","22:10",0.0,9.2,80.6,1008.1,323.0,1.7,2.8,333.9,0.00,6.1,14.3,"22:00:24",1
"17/04/19","22:20",0.0,9.1,81.0,1007.8,322.5,1.5,2.8,327.1,0.00,6.1,14.2,"22:18:50",1
"17/04/19","22:30",0.0,9.1,80.8,1008.1,329.8,2.0,2.9,338.9,0.00,6.0,14.1,"22:22:00",1
"17/04/19","22:40",0.0,8.9,80.6,1007.8,311.1,2.1,3.2,328.5,0.00,5.8,13.9,"22:33:04",1
"17/04/19","22:50",0.0,8.8,80.7,1008.1,308.6,1.7,2.7,319.9,0.00,5.7,14.0,"22:49:20",1
"17/04/19","23:00",0.0,8.7,81.0,1008.8,312.8,1.6,2.4,325.4,0.00,5.7,13.9,"22:55:04",1
"17/04/19","23:10",0.0,8.6,81.9,1008.8,316.9,1.3,2.0,331.9,0.00,5.7,13.8,"23:06:56",1
"17/04/19","23:20",0.0,8.3,82.6,1008.8,299.9,1.8,2.2,297.5,0.00,5.6,13.7,"23:14:48",1
"17/04/19","23:30",0.0,8.1,83.5,1008.6,307.6,1.7,2.5,311.6,0.00,5.5,13.8,"23:25:52",1
"17/04/19","23:40",0.0,8.0,84.8,1008.8,313.8,1.7,2.5,334.0,0.00,5.6,13.6,"23:39:36",1
"17/04/19","23:50",0.0,8.1,85.5,1008.3,335.9,2.1,2.8,346.8,0.00,5.9,13.4,"23:43:28",1
"17/04/19","24:00",0.0,8.1,85.7,1008.6,305.3,1.7,2.5,320.3,0.00,5.9,13.6,"23:52:40",1
